Total_Precipitation_Accumulation
0.99 1.02 0.93 1.07 1.13 1.13 1.13 1.12 1.02 0.97 0.94 0.81 0.79 0.79 0.72 0.57 0.56 0.59 0.76 0.66 0.77 1.04 1.13 1.02 0.92 0.80 0.71 0.66 0.78 0.91 1.01 0.97 1.04 1.15 1.09 1.09 1.11 1.07 1.19 1.16 1.02 1.10 1.08
0.88 1.05 0.99 0.97 1.05 1.23 1.28 1.22 1.11 1.11 1.08 0.91 0.87 0.93 0.84 0.75 0.72 0.73 0.83 0.71 0.53 0.60 0.87 1.02 1.02 0.93 0.82 0.78 0.82 0.97 1.12 1.00 0.94 1.01 1.07 1.11 1.17 1.08 1.12 1.22 1.03 0.98 0.99
0.82 0.99 0.95 0.86 0.84 0.99 1.17 1.30 1.32 1.25 1.11 1.00 0.93 0.94 0.85 0.81 0.79 0.91 0.91 0.84 0.66 0.45 0.57 0.79 0.93 0.95 0.93 0.96 0.94 0.98 1.08 1.00 0.96 0.99 1.04 1.03 1.08 1.15 1.17 1.27 1.20 1.20 1.10
0.61 0.80 0.88 0.79 0.79 0.95 1.16 1.33 1.42 1.45 1.31 1.24 1.21 1.09 0.95 0.89 0.85 0.93 0.96 0.96 0.94 0.73 0.62 0.57 0.64 0.77 0.89 0.98 1.07 1.05 1.01 0.95 0.90 0.92 0.93 0.88 0.90 0.98 1.05 1.19 1.27 1.26 1.13
0.53 0.73 0.91 0.95 0.96 1.06 1.17 1.22 1.40 1.46 1.50 1.40 1.27 1.14 1.03 0.99 0.91 0.85 0.96 0.99 1.01 0.95 0.83 0.56 0.46 0.49 0.66 0.85 0.99 1.04 1.06 0.95 0.83 0.81 0.75 0.72 0.76 0.84 0.92 0.93 1.02 1.07 1.02
0.65 0.84 1.06 1.15 1.27 1.29 1.33 1.48 1.75 1.74 1.58 1.53 1.42 1.22 1.03 1.00 0.99 0.96 0.94 1.00 1.08 1.01 0.89 0.75 0.61 0.40 0.44 0.64 0.86 0.99 1.09 1.06 0.96 0.93 0.81 0.68 0.66 0.75 0.85 0.77 0.80 0.83 0.85
0.80 1.01 1.22 1.45 1.58 1.46 1.46 1.64 1.88 2.03 1.85 1.67 1.67 1.56 1.36 1.15 1.06 1.05 0.99 1.07 1.15 1.13 1.06 1.04 0.90 0.73 0.55 0.48 0.54 0.74 0.96 1.08 1.09 1.09 1.04 0.92 0.78 0.73 0.79 0.68 0.62 0.67 0.72
0.90 0.96 1.16 1.36 1.44 1.47 1.50 1.59 1.78 2.09 2.00 1.79 1.87 2.17 1.94 1.65 1.21 0.98 1.07 1.12 1.21 1.20 1.10 0.99 0.98 0.90 0.80 0.76 0.45 0.41 0.59 0.88 1.13 1.13 1.14 1.11 0.99 0.79 0.79 0.67 0.61 0.60 0.63
1.19 1.17 1.20 1.34 1.42 1.54 1.56 1.59 1.64 1.85 1.97 1.89 1.91 2.34 2.19 1.95 1.79 1.31 1.03 1.09 1.21 1.29 1.25 1.18 1.10 1.04 0.95 0.94 0.77 0.43 0.36 0.51 0.90 1.13 1.21 1.22 1.08 0.91 0.85 0.75 0.70 0.64 0.61
1.50 1.48 1.49 1.57 1.52 1.50 1.48 1.49 1.50 1.65 1.93 1.99 1.91 1.84 1.79 1.79 2.06 1.77 1.26 1.12 1.17 1.19 1.24 1.19 1.20 1.19 1.19 1.09 0.97 0.67 0.40 0.39 0.66 1.10 1.38 1.36 1.14 0.97 0.89 0.87 0.80 0.78 0.71
2.08 2.00 1.93 1.79 1.61 1.52 1.54 1.57 1.57 1.63 1.72 1.82 1.81 1.75 1.74 1.67 1.52 1.64 1.60 1.36 1.20 1.10 1.16 1.22 1.25 1.26 1.33 1.31 1.19 0.89 0.60 0.41 0.51 0.87 1.26 1.45 1.38 1.18 1.01 0.92 0.85 0.82 0.75
2.04 1.98 1.85 1.63 1.45 1.40 1.46 1.58 1.60 1.63 1.62 1.67 1.65 1.58 1.58 1.56 1.46 1.54 1.49 1.50 1.50 1.16 1.03 1.06 1.14 1.18 1.17 1.30 1.22 1.27 0.93 0.62 0.49 0.63 0.87 1.17 1.40 1.48 1.35 1.20 1.00 0.90 0.82
1.42 1.46 1.46 1.43 1.37 1.31 1.38 1.55 1.63 1.66 1.67 1.64 1.57 1.52 1.56 1.45 1.51 1.69 1.68 1.58 1.52 1.21 0.99 0.89 0.92 0.98 0.99 1.15 1.27 1.43 1.17 0.90 0.63 0.55 0.63 0.78 0.96 1.25 1.48 1.56 1.48 1.30 1.22
1.24 1.25 1.32 1.34 1.32 1.32 1.34 1.41 1.51 1.63 1.65 1.59 1.55 1.63 1.59 1.44 1.52 1.54 1.53 1.69 1.55 1.33 1.09 0.82 0.75 0.77 0.89 0.97 1.17 1.39 1.02 0.95 0.78 0.62 0.56 0.60 0.71 0.79 0.98 1.27 1.56 1.67 1.67
0.94 1.05 1.15 1.21 1.17 1.18 1.22 1.31 1.44 1.49 1.58 1.65 1.64 1.65 1.65 1.58 1.57 1.56 1.65 1.70 1.69 1.46 1.19 0.93 0.78 0.67 0.78 0.84 1.08 1.06 0.92 0.94 0.85 0.71 0.62 0.56 0.58 0.61 0.71 0.80 0.95 1.12 1.28
0.83 0.90 0.87 0.83 0.81 0.87 0.89 0.99 1.17 1.25 1.29 1.38 1.41 1.45 1.49 1.50 1.56 1.56 1.62 1.69 1.66 1.54 1.36 1.11 0.92 0.81 0.87 0.82 0.95 0.92 0.98 1.12 0.95 0.79 0.68 0.61 0.57 0.57 0.58 0.58 0.60 0.60 0.66
0.52 0.60 0.56 0.53 0.58 0.62 0.59 0.68 0.79 0.91 0.99 1.04 1.06 1.10 1.17 1.24 1.33 1.38 1.49 1.57 1.60 1.54 1.29 1.14 1.00 0.90 0.95 0.99 0.99 0.94 1.00 1.02 0.93 0.86 0.73 0.63 0.60 0.57 0.58 0.58 0.58 0.53 0.52
0.22 0.29 0.32 0.33 0.40 0.51 0.53 0.60 0.64 0.65 0.71 0.76 0.81 0.88 0.93 0.99 1.10 1.18 1.25 1.34 1.47 1.50 1.39 1.24 1.10 0.99 0.91 0.95 1.11 1.15 1.13 1.07 1.05 1.13 1.02 0.85 0.74 0.66 0.62 0.62 0.64 0.60 0.55
0.16 0.20 0.23 0.26 0.29 0.39 0.50 0.56 0.58 0.55 0.54 0.52 0.53 0.58 0.67 0.75 0.89 0.98 1.03 1.11 1.27 1.31 1.38 1.28 1.21 1.13 0.98 0.92 1.05 1.07 1.17 1.34 1.24 1.31 1.44 1.25 0.98 0.82 0.71 0.70 0.74 0.71 0.64
0.16 0.15 0.14 0.16 0.24 0.35 0.43 0.51 0.55 0.52 0.49 0.49 0.50 0.50 0.53 0.55 0.63 0.74 0.87 1.05 1.22 1.35 1.39 1.32 1.27 1.23 1.14 1.05 1.12 1.18 1.28 1.38 1.42 1.29 1.33 1.30 1.24 1.11 0.93 0.83 0.85 0.88 0.85
0.12 0.08 0.06 0.08 0.16 0.22 0.26 0.40 0.46 0.45 0.48 0.45 0.47 0.51 0.53 0.49 0.49 0.54 0.55 0.73 0.95 1.18 1.30 1.36 1.36 1.37 1.30 1.23 1.15 1.22 1.31 1.46 1.58 1.58 1.49 1.34 1.30 1.17 1.05 0.96 0.91 0.93 0.97
0.09 0.07 0.05 0.05 0.07 0.08 0.14 0.21 0.30 0.40 0.47 0.50 0.51 0.55 0.53 0.48 0.53 0.51 0.49 0.52 0.62 0.78 0.96 1.09 1.18 1.23 1.27 1.35 1.45 1.45 1.45 1.53 1.60 1.60 1.48 1.51 1.46 1.34 1.17 1.00 1.00 1.02 1.04
0.04 0.04 0.04 0.04 0.04 0.04 0.05 0.08 0.18 0.34 0.48 0.49 0.48 0.62 0.68 0.62 0.61 0.65 0.66 0.60 0.54 0.53 0.69 0.87 0.99 1.04 1.11 1.22 1.46 1.50 1.49 1.51 1.44 1.49 1.36 1.43 1.40 1.28 1.19 1.15 1.16 1.10 1.11
0.02 0.03 0.05 0.07 0.05 0.02 0.02 0.03 0.09 0.24 0.39 0.43 0.44 0.56 0.81 0.86 0.75 0.70 0.75 0.85 0.77 0.61 0.61 0.66 0.81 0.91 0.96 1.13 1.46 1.67 1.62 1.42 1.37 1.42 1.34 1.35 1.31 1.20 1.14 1.12 1.16 1.08 1.06
0.03 0.03 0.04 0.06 0.05 0.04 0.04 0.04 0.08 0.19 0.29 0.33 0.38 0.50 0.67 0.82 0.75 0.71 0.71 0.78 0.82 0.72 0.66 0.68 0.65 0.72 0.84 1.01 1.27 1.52 1.65 1.59 1.43 1.38 1.25 1.18 1.21 1.21 1.23 1.19 1.13 1.11 1.05
0.03 0.03 0.03 0.03 0.03 0.02 0.04 0.05 0.07 0.13 0.17 0.17 0.24 0.41 0.56 0.55 0.52 0.59 0.70 0.81 0.90 0.74 0.65 0.74 0.73 0.75 0.77 0.95 1.27 1.47 1.59 1.58 1.47 1.43 1.33 1.23 1.23 1.25 1.41 1.37 1.20 1.13 1.08